Showing default

ALSAT 2B, 41786

Orbit data source: Space-Track

ALSAT 2B, 41786 is a payload satellite owned by ASAL (DZ) in SSO that was launched on Mon, 26 Sep 2016 UTC via a PSLV launch vehicle from the Sirharikota (SRI). Payloads include a variety of satellites, spacecraft, and rockets equipped with specific instruments for various scientific and technological missions. These include communications satellites like Starlink; space stations such as the ISS; scientific satellites like the Hubble; Earth observation satellites from companies like Planet Labs, Umbra, and HawkEye 360; GPS; miniature CubeSats for education and research; and military/defense satellites.

Loading next visibility...
ALSAT 2B details
Identifier
41786, 2016-059D
Orbit
SSO
Last TLE update11 hours ago
Origin
Flag of DZASAL (DZ / ALG)
ManufacturerAirbus/Toulouse
MissionOperational Civil Imaging
Bus & MotorMYRIADE, AOCS
Mass117 kg wet, 117 kg dry
Launch date (UTC)
2016-09-26 (8 years ago)
Launch vehicle
PSLV
Launch site
Sirharikota (SRI)
Object type
Payload
Rocket body
Debris
Shape & HBRBox + 1 Pan, 1.8 m
Radar Cross Section0.912 m², Medium (>0.1 m² and < 1m²)

Expand to show TLE details & history

TLE from 11 hours ago
0 ALSAT 2B
1 41786U 16059D   25013.56614227  .00001216  00000-0  21258-3 0  9992
2 41786  98.0613  79.0920 0001997  82.4823 277.6610 14.69642595444412
Epoch: 2025-01-13T13:35Z
Definitive object data (Epoch: 2025-01-13T13:35:14.692Z)
Latitude0.00004°
Longitude121.99543°
Altitude665.025 km
Speed7.525 km/s
True Right ascension05h 16m 22s
True Declination0° 00' 00"
Sunlit
Object was in full shadow at TLE epoch
Visualization TLE readout
Latitude-25.96528°
Longitude-61.49643°
Altitude672.754 km
Speed7.519 km/s
Apparent Right ascension15h 15m 53s
Apparent Declination-36° 28' 29"
Sunlit
Object is in daylight
Visualization observer readout
Local Sidereal Time00:53:59
Azimuth265.619° W
Elevation-62.093°
Doppler factor1
Orbital elements
Apogee altitude660.677 km
Perigee altitude657.866 km
Semi-major axis7,037.408 km
Eccentricity0.0001997
Inclination98.0613°
RAAN79.092°
Arg. of periapsis82.4823°
True anomaly277.63832°
Mean anomaly277.661°
Eccentric anomaly277.64966°
Mean motion3.67641 °/min
BSTAR0.00021258
Orbital period97.92 mins
Loading maneuver chart data...
Loading historical data...
Loading historical data...
Loading historical data...
Loading historical data...
Loading historical data...
Loading historical data...
Loading historical data...

ALSAT 2B Visibility forecast

Observer location: undefined°, undefined

Span
Click to sort rows by Start time (UTC) header in descending order
Start Az.
Max El. time (UTC)
Max El. Az.
Max El.
End time (UTC)
End Az.
7 mins2025-01-14 04:25:33.101Z179.707° S2025-01-14 04:28:33.101Z267.685° W42.601°2025-01-14 04:32:33.101Z340.916° N
6 mins2025-01-14 16:19:33.101Z47.18° ENE2025-01-14 16:22:33.101Z101.261° ESE24.143°2025-01-14 16:25:33.101Z149.057° SSE
6 mins2025-01-14 17:56:33.101Z338.813° N2025-01-14 17:59:33.101Z282.488° WNW24.656°2025-01-14 18:02:33.101Z236.721° WSW
|